Regional Weather Roundup
Issued by NWS

Home | Current Version | Previous Version | Graphics & Text | Print | Product List | Glossary On
Versions: 1 2 3 4 5 6 7 8 9 10 11 12 13 14 15 16 17 18 19 20 21 22 23 24 25 26 27
000
ASUS45 KBOU 290307
RWRCO

WEATHER ROUNDUP FOR COLORADO
NATIONAL WEATHER SERVICE DENVER/BOULDER CO
900 PM MDT SUN AUG 28 2016

NOTE: "FAIR" INDICATES FEW OR NO CLOUDS BELOW 12000 FEET WITH NO
SIGNIFICANT WEATHER AND/OR OBSTRUCTIONS TO VISIBILITY.

COZ001>005-013-030-031-290400-
...NORTHWEST COLORADO...

CITY           SKY/WX    TMP DP  RH WIND       PRES   REMARKS
CRAIG          FAIR      66  39  37 SE12      30.28R
HAYDEN         FAIR      63  36  36 E6        30.32R
MEEKER         FAIR      60  44  55 NE5       30.32R
MOUNT WERNER   NOT AVBL
STEAMBOAT SPGS FAIR      59  40  48 NW8       30.35R
WALDEN         FAIR      50  37  62 E7        30.46R
$$

COZ006>008-011-290400-
...WEST CENTRAL VALLEYS...

CITY           SKY/WX    TMP DP  RH WIND       PRES   REMARKS
GRAND JUNCTION FAIR      73  41  31 NE9       30.22R
MONTROSE       FAIR      61  46  57 S20G30    30.34R
EAGLE          FAIR      59  46  63 SE7       30.42R
RIFLE          FAIR      63  48  58 NE6       30.29R
DELTA          NOT AVBL
NUCLA          NOT AVBL
$$

COZ017>023-064>068-290400-
...SOUTHWEST COLORADO...

CITY           SKY/WX    TMP DP  RH WIND       PRES   REMARKS
DURANGO        FAIR      56  43  61 NE5       30.31R
CORTEZ         FAIR      61  48  62 CALM      30.27R
PAGOSA SPRINGS FAIR      59  40  48 N6        30.38R
TELLURIDE      LGT RAIN  46  44  95 E3        30.56F
WOLF CREEK PAS FAIR      37  36  93 MISG      30.64F
$$

COZ009-010-012-014-032>034-037-058>063-290400-
...CENTRAL COLORADO...

CITY           SKY/WX    TMP DP  RH WIND       PRES   REMARKS
ASPEN          FAIR      54  42  64 SW3       30.44R
BUENA VISTA    MOCLDY    57  39  51 N10G24    30.46R
COPPER MTN     CLOUDY    45  34  65 CALM      30.69S
BERTHOUD PASS  FAIR      37  27  65 NE7       30.72R
COTTONWOOD PAS CLOUDY    52  36  54 SE9       30.56R
GUNNISON       FAIR      54  43  66 E5        30.44R
KREMMLING      FAIR      54  43  66 SE7       30.46R
LEADVILLE      FAIR      42  39  89 CALM      30.56S
MONARCH PASS   RAIN      37  34  87 E21       30.75R
SALIDA         MOCLDY    57  48  72 NE9       30.51R
SUNLIGHT       CLOUDY    43  43 100 SW7       30.64R
WILKERSON PASS TSTM      41  36  81 SW5       30.69R
$$

COZ069>075-290400-
...SAN LUIS VALLEY/SANGRE DE CRISTO MOUNTAINS...

CITY           SKY/WX    TMP DP  RH WIND       PRES   REMARKS
ALAMOSA        CLOUDY    61  43  51 N15       30.34R
LA VETA PASS   MOCLDY    54  36  50 NE7       30.51R THUNDER
SAGUACHE       FAIR      61  36  39 N16G24    30.39R
$$

COZ035-036-038>040-290400-
...NORTHERN COLORADO FRONT RANGE...

CITY           SKY/WX    TMP DP  RH WIND       PRES   REMARKS
DENVER INTL AP MOCLDY    65  47  52 E7        30.25R
DMNS CITY PARK   N/A     69  44  40 S5        30.24R
AURORA         MOCLDY    63  45  50 SE10      30.26R
FRONT RANGE AP MOCLDY    66  48  52 E5G16     30.26R
ERIE MUNI ARPT FAIR      72  44  36 SE12G24   30.23R
BOULDER MUN AP FAIR      72  39  30 S3        30.24R
CENTENNIAL     MOCLDY    66  42  41 CALM      30.27R
BROOMFIELD     MOCLDY    72  41  33 S3        30.26R
FORT COLLINS   FAIR      68  48  49 SE9       30.22R
LONGMONT       FAIR      73  46  38 E6        30.24R
$$

COZ041-046-047-076>085-087-088-290400-
...PIKES PEAK/PALMER DIVIDE AND SOUTHERN FOOTHILLS...

CITY           SKY/WX    TMP DP  RH WIND       PRES   REMARKS
COLO. SPRINGS  MOCLDY    70  42  36 NE5       30.28R THUNDER
A. F. ACADEMY  CLOUDY    63  45  52 N7        30.30R
SCHRIEVER AFB  NOT AVBL
ELLICOTT       NOT AVBL
FALCON         MOCLDY    64  43  46 N7        30.33R
FORT CARSON    TSTM      64  51  62 SE6       30.25R
LIMON          FAIR      63  48  58 N7        30.24R
MONUMENT HILL  FAIR      57  43  58 NE6       30.37R
TRINIDAD       FAIR      67  48  50 SE10      30.21R
$$

COZ042>045-048>051-090-091-290400-
...NORTHEAST COLORADO...

CITY           SKY/WX    TMP DP  RH WIND       PRES   REMARKS
GREELEY ARPT   FAIR      70  48  46 SE15G23   30.21R
AKRON          FAIR      70  47  43 NW16G25   30.23R
BURLINGTON     FAIR      70  56  61 S7        30.17R
WRAY           NOT AVBL
STERLING       FAIR      73  46  38 W9        30.15R
HOLYOKE        FAIR      66  57  72 SE3       30.15R
FORT MORGAN    TSTM      61  52  72 W13       30.30R
$$

COZ086-089-092>099-290400-
...SOUTHEAST COLORADO...

CITY           SKY/WX    TMP DP  RH WIND       PRES   REMARKS
PUEBLO         MOCLDY    77  50  38 E9        30.15R
LA JUNTA       FAIR      77  55  46 SE15      30.12R
LAMAR          FAIR      74  58  57 SE7       30.10R
SPRINGFIELD      N/A     67  62  84 SE14      30.17R
$$




USA.gov is the U.S. government's official web portal to all federal, state and local government web resources and services.